Weather History for McComb, MS

Change the Weather History Date:

Thursday, March 20, 2014

  Actual Average Record
Temperature  
Mean Temperature 62 °F -  
Max Temperature 73 °F 70 °F 87 °F (2004)
Min Temperature 48 °F 47 °F 23 °F (1965)
Degree Days  
Heating Degree Days 4    
Growing Degree Days 12 (Base 50)    
Moisture  
Dew Point 40 °F    
Average Humidity 51    
Maximum Humidity 80    
Minimum Humidity 23    
Precipitation  
Precipitation 0.00 in - - ()
Sea Level Pressure  
Sea Level Pressure 30.11 in    
Wind  
Wind Speed 5 mph (NNE)    
Max Wind Speed 9 mph    
Max Gust Speed -    
Visibility 10 miles    
Events      
Averages and records for this station are not official NWS values.
T = Trace of Precipitation, MM = Missing Value Source: NWS Daily Summary

Daily Weather History Graph

Daily Weather History Graph

Search for Another Location

Airport:

Trip Planner

Search our weather history database for the weather conditions in past years. The results will help you decide how hot, cold, wet, or windy it might be!

Date:

Astronomy

Mar. 20, 2014 Rise Set
Actual Time 7:05 AM CDT 7:13 PM CDT
Civil Twilight 6:41 AM CDT 7:37 PM CDT
Nautical Twilight 6:13 AM CDT 8:05 PM CDT
Astronomical Twilight 5:44 AM CDT 8:34 PM CDT
Moon 11:16 PM CDT 9:27 AM CDT
Length of Visible Light 12h 56m
Length of Day
12h 07m
Waning Gibbous, 84% of the Moon is Illuminated
Mar 20
Waning Gibbous
Mar 23
Last Quarter
Mar 30
New
Apr 7
First Quarter
Apr 15
Full

Hourly Weather History & Observations

Time (CDT) Temp. Dew Point Humidity Pressure Visibility Wind Dir Wind Speed Gust Speed Precip Events Conditions
12:53 AM 61.0 °F 52.0 °F 72% 30.08 in 10.0 mi North 9.2 mph - N/A   Overcast
1:53 AM 60.1 °F 48.9 °F 67% 30.12 in 10.0 mi NNE 3.5 mph - N/A   Overcast
2:53 AM 59.0 °F 46.9 °F 64% 30.12 in 10.0 mi NNE 4.6 mph - N/A   Overcast
3:53 AM 57.9 °F 43.0 °F 58% 30.11 in 10.0 mi NNE 4.6 mph - N/A   Overcast
4:53 AM 55.9 °F 42.1 °F 60% 30.11 in 10.0 mi NNE 5.8 mph - N/A   Overcast
5:53 AM 54.0 °F 41.0 °F 62% 30.13 in 10.0 mi North 8.1 mph - N/A   Partly Cloudy
6:53 AM 52.0 °F 41.0 °F 66% 30.15 in 10.0 mi NNE 4.6 mph - N/A   Clear
7:53 AM 52.0 °F 39.9 °F 63% 30.15 in 10.0 mi NNE 8.1 mph - N/A   Clear
8:53 AM 55.0 °F 39.9 °F 57% 30.17 in 10.0 mi NNE 8.1 mph - N/A   Clear
9:53 AM 57.9 °F 39.0 °F 49% 30.18 in 10.0 mi Variable 5.8 mph - N/A   Clear
10:53 AM 61.0 °F 37.9 °F 42% 30.18 in 10.0 mi North 9.2 mph - N/A   Clear
11:53 AM 64.9 °F 37.9 °F 37% 30.17 in 10.0 mi North 8.1 mph - N/A   Clear
12:53 PM 66.9 °F 37.9 °F 34% 30.15 in 10.0 mi Calm Calm - N/A   Clear
1:53 PM 70.0 °F 37.0 °F 30% 30.12 in 10.0 mi North 6.9 mph - N/A   Clear
2:53 PM 72.0 °F 35.1 °F 26% 30.09 in 10.0 mi Variable 4.6 mph - N/A   Clear
3:53 PM 72.0 °F 35.1 °F 26% 30.07 in 10.0 mi Variable 3.5 mph - N/A   Clear
4:53 PM 73.0 °F 33.1 °F 23% 30.06 in 10.0 mi Calm Calm - N/A   Clear
5:53 PM 72.0 °F 34.0 °F 25% 30.06 in 10.0 mi North 5.8 mph - N/A   Clear
6:53 PM 69.1 °F 39.9 °F 35% 30.06 in 10.0 mi Calm Calm - N/A   Clear
7:53 PM 59.0 °F 42.1 °F 53% 30.07 in 10.0 mi Calm Calm - N/A   Clear
8:53 PM 55.9 °F 41.0 °F 57% 30.08 in 10.0 mi Calm Calm - N/A   Clear
9:53 PM 51.1 °F 41.0 °F 68% 30.08 in 10.0 mi Calm Calm - N/A   Clear
10:53 PM 50.0 °F 42.1 °F 74% 30.08 in 10.0 mi Calm Calm - N/A   Clear
11:53 PM 48.0 °F 42.1 °F 80% 30.08 in 10.0 mi NNW 3.5 mph - N/A   Clear